#timestamp,LO_Frequency,Hit,StdDev 
1632996015.4,286046979.7,N
1632996035.3,286046978.7,N
1632996055.1,286046977.9,N
1632996075.8,286046980.4,N
1632996095.7,286046978.2,Y
1632996115.5,286046994.3,P
1632996135.4,286046992.0,N
1632996155.2,286046998.6,N
1632996175.0,286046999.1,N
1632996175.9,286046999.1,N
1632996195.8,286046995.4,N
1632996215.6,286046999.3,N
1632996235.4,286046998.3,N
1632996255.3,286046997.0,N
1632996275.1,286046997.6,N
1632996295.9,286046995.4,N
1632996315.7,286046996.9,N
1632996335.5,286047000.7,N
1632996355.4,286047002.1,N
1632996375.2,286046998.4,N
1632996395.1,286046995.7,N
1632996396.0,286046995.7,N
1632996415.8,286046994.0,N
1632996435.6,286046994.4,N
1632996455.5,286046992.5,N
1632996475.3,286046989.2,Y
1632996495.2,286046990.4,P
1632996515.0,286046992.8,N
1632996515.9,286046992.8,N
1632996535.7,286046992.9,Y
1632996555.6,286046998.0,P
1632996575.4,286046994.5,N
1632996595.3,286046993.5,P
1632996615.1,286046992.7,Y
1632996635.8,286046996.7,P
1632996655.7,286046999.1,N
1632996675.5,286047001.2,N
1632996695.4,286047002.8,N
1632996715.2,286047002.1,N
1632996735.0,286047000.0,N
1632996735.9,286047000.0,N
1632996755.8,286047002.0,N
1632996775.6,286046997.1,N
1632996795.4,286046990.2,Y
1632996815.3,286046993.7,P
1632996835.1,286046990.3,P
1632996855.9,286046991.8,N
1632996875.7,286046992.2,N
1632996895.5,286046993.0,N
1632996915.4,286046992.1,N
1632996935.2,286046989.0,Y
1632996955.0,286046993.4,P
1632996955.9,286046993.4,P
1632996975.8,286046992.1,P
1632996995.6,286046990.2,Y
1632997015.5,286046998.9,P
1632997035.3,286046998.8,N
1632997055.1,286046997.3,N
1632997075.9,286046996.8,N
1632997095.7,286046994.9,N
1632997115.6,286046996.4,N
1632997135.4,286046990.6,Y
1632997155.2,286046995.1,P
1632997175.1,286047001.4,N
1632997176.0,286047001.4,N
1632997195.8,286047005.8,N
1632997215.6,286047003.7,N
1632997235.5,286047002.0,N
1632997255.3,286046997.4,N
1632997275.2,286046997.1,N
1632997295.9,286046999.6,N
1632997315.7,286047002.8,N
1632997335.6,286047005.6,N
1632997355.4,286047004.4,N
1632997375.2,286047002.4,N
1632997395.1,286047005.9,N
1632997396.0,286047005.9,N
1632997415.8,286047004.5,N
1632997435.7,286047003.0,N
1632997455.5,286047003.1,N
1632997475.3,286047005.3,N
1632997495.2,286047001.8,N
1632997515.0,286047003.3,N
1632997515.9,286047003.3,N
1632997535.7,286046999.3,N
1632997555.6,286046995.6,N
1632997575.4,286046993.1,N
1632997595.3,286046991.8,N
1632997615.1,286046997.5,N
1632997635.8,286047001.1,N
1632997655.7,286047000.7,N
1632997675.5,286046993.4,N
1632997695.4,286046990.1,N
1632997715.2,286046989.4,N
1632997735.0,286046985.6,Y
1632997735.9,286046985.6,P
1632997755.8,286046984.7,N
1632997775.6,286046983.9,N
1632997795.4,286046980.8,N
1632997815.3,286046979.7,N
1632997835.1,286046982.9,N
1632997855.9,286046984.2,N
1632997875.7,286046991.4,N
1632997895.5,286046994.1,N
1632997915.4,286046998.2,N
1632997935.2,286046999.1,N
1632997955.0,286046993.5,N
1632997956.0,286046993.5,N
1632997975.8,286046994.1,N
1632997995.6,286046996.1,N
1632998015.5,286046994.8,N
1632998035.3,286046988.9,N
1632998055.1,286046991.1,N
1632998075.9,286046992.0,N
1632998095.7,286046994.1,N
1632998115.6,286046989.0,N
1632998135.4,286046987.4,N
1632998155.2,286046986.0,N
1632998175.1,286046983.8,N
1632998176.0,286046983.8,N
1632998195.8,286046983.4,N
1632998215.6,286046983.1,N
1632998235.5,286046987.3,N
1632998255.3,286046987.0,N
1632998275.2,286046989.9,N
1632998295.9,286046989.0,N
1632998315.7,286046986.6,N
1632998335.6,286046985.2,N
1632998355.4,286046981.1,Y
1632998375.3,286046989.4,P
1632998395.1,286046986.4,P
1632998396.0,286046986.4,P
1632998415.8,286046985.1,Y
1632998435.7,286046999.5,P
1632998455.5,286046997.8,N
1632998475.3,286046998.4,N
1632998495.2,286046996.9,N
1632998515.0,286046992.3,N
1632998515.9,286046992.3,N
1632998535.8,286046996.2,N
1632998555.6,286046993.4,N
1632998575.4,286046992.0,N
1632998595.3,286046995.3,N
1632998615.1,286046996.4,N
1632998635.9,286046989.5,Y
1632998655.7,286046998.6,P
1632998675.5,286046999.9,N
1632998695.4,286046996.8,N
1632998715.2,286046998.8,N
1632998735.0,286046997.3,N
1632998735.9,286046997.3,N
1632998755.8,286046991.8,Y
1632998775.6,286046996.4,P
1632998795.5,286046990.9,P
1632998815.3,286046989.4,P
1632998835.1,286046986.9,Y
1632998855.9,286047000.8,P
1632998875.7,286047001.0,N
1632998895.6,286046995.0,N
1632998915.4,286046998.4,N
1632998935.2,286047001.9,N
1632998955.1,286047000.8,N
1632998956.0,286047000.8,N
1632998975.8,286047000.2,N
1632998995.7,286047002.7,N
1632999015.5,286047005.5,N
1632999035.3,286047000.6,N
1632999055.2,286047007.4,N
1632999075.0,286047010.0,N
1632999075.9,286047010.0,N
1632999095.7,286047008.2,N
1632999115.6,286047008.8,N
1632999135.4,286047005.2,N
1632999155.3,286046999.8,N
1632999175.1,286046998.2,N
1632999176.0,286046998.2,N
1632999195.8,286046991.7,N
1632999215.7,286046991.5,N
1632999235.5,286046991.6,N
1632999255.4,286046989.2,N
1632999275.2,286046995.2,N
1632999295.0,286046993.8,N
1632999295.9,286046993.8,N
1632999315.8,286046990.4,N
1632999335.6,286046986.8,N
1632999355.4,286046985.9,N
1632999375.3,286046985.1,N
1632999395.1,286046985.2,N
1632999415.9,286046982.3,N
1632999435.7,286046988.8,N
1632999455.5,286046989.0,N
1632999475.4,286046987.4,N
1632999495.2,286046984.0,N
1632999515.0,286046982.5,N
1632999515.9,286046982.5,N
1632999535.8,286046984.9,N
1632999555.6,286046981.6,N
1632999575.5,286046981.1,N
1632999595.3,286046980.2,N
